www.pogodaiklimat.ru

Погода и климат >> Архив погоды >> Россия >> Воронежская область >> Анна


ПОГОДА в Анне

  • Прогноз погоды в Анне
  • Монитор погоды в Анне

АРХИВ ПОГОДЫ в Анне

Время (UTC), дата Ветер
(напр.,м/с)
 
Видим.   Явления Облачность Т
(С)
Тd
(С)
f
(%)
Тe
(С)
Тes
(С)
Комфортность P
(гПа)
Po
(гПа)
Тmin
(С)
Tmax
(С)
R
(мм)
R24
(мм)
S
(см)
00 18.08 Ю 1 10 км 10/0
[Ci sp]
+15.9 +14.9 94 +17 +17 1009.3 991.2
03 18.08 Ю 2 4000 м дымка 10/0
[As trans]
+17.9 +17.2 96 +18 +19 1009.8 991.7 +15.9
06 18.08 ЮЗ 2 10 км {туман} 10/10 600 м
[Cb calv]
+19.6 +17.7 89 +23 +23 комфорт 1010.2 992.3
09 18.08 З 2 10 км 9/5 600 м
[Cb calv Ci sp]
+22.8 +18.5 77 +29 +34 очень
душно
1010.7 993.0
12 18.08 СЗ 1 10 км 9/6 600 м
[Cb calv Ci fib]
+25.4 +19.2 69 +31 +34 очень
душно
1011.4 993.8
15 18.08 штиль 0 10 км 10/8 600 м
[Cb calv Ci fib]
+25.0 +18.7 68 +30 +30 душно 1011.5 993.9 +26.8
18 18.08 СВ 1 10 км 10/10 600 м
[Cb calv]
+21.3 +18.3 83 +26 +26 душно 1013.2 995.4
21 18.08 СЗ 1 10 км 6/6 600 м
[Cb calv]
+18.4 +16.7 90 +20 +20 1014.4 996.3
00 19.08 штиль 0 10 км 9/0
[Ac trans]
+15.9 +14.5 91 +16 +16 1015.4 997.1
03 19.08 штиль 0 10 км 10/0
[Ac trans Ci sp]
+17.0 +15.5 91 +17 +17 1016.2 998.0 +15.2
06 19.08 С 1 10 км 9/9 600 м
[Cb calv]
+18.3 +15.1 82 +20 +21 1017.2 999.0
09 19.08 С 2 10 км 9/0
[Ac trans Ci fib]
+23.2 +14.8 59 +27 +35 душно 1018.0 1000.2
12 19.08 СВ 2 10 км 9/0
[Ac trans Ci fib]
+23.6 +14.1 55 +26 +30 жарко 1018.3 1000.5
15 19.08 СВ 1 10 км 8/8 600 м
[Cb calv]
+23.7 +15.0 58 +27 +27 жарко 1018.4 1000.6 +25.0
18 19.08 штиль 0 10 км 8/8 1000 м
[Sc diur, vesp]
+20.6 +17.3 81 +24 +24 комфорт 1019.5 1001.5
21 19.08 штиль 0 10 км 6/3 1000 м
[Sc diur, vesp Ci fib]
+17.1 +15.6 91 +17 +17 1019.9 1001.6
00 20.08 штиль 0 10 км 9/9 1000 м
[Sc]
+17.2 +16.2 94 +17 +17 1020.2 1001.9
03 20.08 штиль 0 10 км ясно +15.6 +14.9 96 +15 +16 1021.4 1003.0 +15.3
06 20.08 С 3 10 км ясно +23.2 +15.6 62 +27 +33 душно 1021.9 1004.0
09 20.08 С 3 10 км 3/0
[Ci sp]
+26.4 +14.6 48 +29 +39 жарко 1021.7 1003.9
12 20.08 С 3 10 км ясно +27.7 +12.0 38 +29 +36 жарко 1020.9 1003.3
15 20.08 СВ 3 10 км ясно +26.7 +12.0 40 +28 +29 жарко 1021.1 1003.3 +28.8
18 20.08 штиль 0 10 км ясно +19.0 +14.0 73 +20 +20 1022.3 1004.0
21 20.08 С 1 10 км ясно +15.4 +12.9 85 +16 +16 1022.9 1004.5
00 21.08 С 2 10 км ясно +14.7 +13.4 92 +14 +14 1022.7 1004.2
03 21.08 С 2 10 км ясно +14.5 +13.6 94 +14 +14 1023.6 1005.1 +14.2
06 21.08 СВ 2 10 км ясно +22.5 +15.9 66 +27 +33 душно 1023.8 1005.8
09 21.08 С 4 10 км 4/4 600 м
[Cu hum]
+27.0 +15.4 49 +30 +35 душно 1022.4 1004.8
12 21.08 С 3 10 км 1/1 600 м
[Cu hum]
+28.7 +15.0 43 +31 +37 жарко 1021.4 1003.8
15 21.08 С 3 10 км ясно +27.7 +14.9 46 +30 +31 жарко 1020.7 1003.1 +28.8
18 21.08 штиль 0 10 км ясно +20.7 +14.2 66 +23 +23 комфорт 1021.3 1003.2
21 21.08 С 1 10 км ясно +16.5 +13.3 81 +17 +17 1021.6 1003.2
00 22.08 С 1 10 км ясно +15.2 +13.8 91 +16 +16 1021.4 1003.0
03 22.08 штиль 0 10 км ясно +13.9 +12.6 92 +13 +14 1021.7 1003.2 +13.4
06 22.08 ЮВ 2 10 км ясно +24.1 +15.9 60 +27 +34 жарко 1021.0 1003.1
09 22.08 В 2 10 км 4/4 600 м
[Cu hum]
+28.6 +15.8 46 +32 +39 душно 1019.9 1002.3
12 22.08 В 2 10 км 3/3 600 м
[Cu hum]
+29.6 +15.3 42 +32 +38 душно 1019.2 1001.7
15 22.08 С 1 10 км 3/3 600 м
[Cu hum]
+28.8 +15.9 46 +32 +33 душно 1018.7 1001.3 +30.5
18 22.08 штиль 0 10 км 3/0
[Ci sp]
+21.4 +16.3 73 +25 +25 комфорт 1020.4 1002.4
21 22.08 штиль 0 10 км 3/0
[Ci fib]
+18.2 +14.8 81 +18 +18 1020.7 1002.4
00 23.08 штиль 0 10 км 3/0
[Ci fib]
+16.8 +14.4 86 +17 +17 1021.1 1002.7
03 23.08 С 3 10 км 6/0
[Ac trans Ci sp]
+19.1 +17.1 88 +21 +21 комфорт 1022.0 1003.9 +16.0
06 23.08 С 3 10 км 8/0
[Ci fib]
+21.9 +16.3 71 +26 +30 душно 1023.0 1005.0
09 23.08 С 3 10 км 9/0
[Ci fib]
+25.9 +16.4 56 +29 +38 душно 1022.7 1004.9
12 23.08 СВ 3 10 км 9/3 600 м
[Cu hum Ci fib]
+26.4 +16.6 55 +30 +34 душно 1022.6 1004.8
15 23.08 СВ 2 10 км 9/0
[Ci fib]
+24.9 +15.1 54 +28 +28 жарко 1022.5 1004.7 +27.7
18 23.08 С 3 10 км 8/0
[Ci fib]
+20.6 +13.9 65 +23 +23 комфорт 1023.4 1005.3
21 23.08 С 2 10 км 5/3 600 м
[Cb calv Ci fib]
+18.2 +12.5 69 +19 +19 1023.4 1005.1
00 24.08 С 2 10 км ясно +16.6 +12.1 75 +17 +17 1023.4 1005.0
03 24.08 СВ 2 10 км 8/0
[Ac trans Ci fib]
+15.8 +10.4 70 +16 +16 1024.2 1005.9 +15.8
06 24.08 СВ 3 10 км 3/0
[Ci fib]
+20.6 +10.8 53 +23 +28 комфорт 1024.2 1006.1
09 24.08 В 2 10 км ясно +25.8 +13.6 47 +28 +40 жарко 1022.8 1005.0
12 24.08 В 3 10 км 8/4 600 м
[Cu hum Ac trans]
+28.3 +12.4 37 +29 +32 жарко 1021.7 1004.1
15 24.08 С 2 10 км 4/3 600 м
[Cu hum Ac trans]
+26.8 +12.8 42 +28 +29 жарко 1021.3 1003.5 +28.8
18 24.08 штиль 0 10 км ясно +19.1 +13.7 71 +20 +20 1022.0 1003.9
21 24.08 штиль 0 10 км ясно +15.0 +9.6 70 +15 +15 1022.3 1003.8

 

Местоположение метеостанции Анна (Воронежская область, Россия): широта 51.48 долгота 40.42 высота над уровнем моря 154 м.

В архиве по умолчанию представлена погода в Анне за последнюю неделю. Архивные данные за месяц целиком и за предыдущие месяцы, начиная с января 2011 года, Вы можете получить, выбрав интересующий диапазон дат из раскрывающегося списка и нажав кнопку "Ввод!".


*Определитесь, кто Вы:
робот инопланетянин человек

Внимание! Время в таблицах - всемирное. Для получения местного времени необходимо прибавить поправку, которая равна 3 ч.

Смотрите также архив погоды в соседних городах и на ближайших метеорологических станциях:

Погода в Каменной Степи (Воронежская область, Россия) (52 км)
Погода в Жердевке (Тамбовская область, Россия) (83 км)
Погода в Лисках (Воронежская область, Россия) (83 км)
Погода в Совхозе им. Ленина (Тамбовская область, Россия) (86 км)
Погода в Воронеже (Воронежская область, Россия) (87 км)
Погода в Конь-Колодезе (Липецкая область, Россия) (115 км)
Погода в Борисоглебске (Воронежская область, Россия) (116 км)
Погода в Павловск (Воронежская область, Россия) (117 км)
Погода в Калаче (Воронежская область, Россия) (126 км)
Погода в Урюпинске (Волгоградская область, Россия) (134 км)

Пояснения к столбцам:

Ветер - указаны скорость ветра в м/с - средняя за 10 мин, порывы в срок и между сроками (в фигурных скобках) и направление, откуда дует ветер: С - северный, СВ - северо-восточный, В - восточный, ЮВ - юго-восточный, Ю - южный, ЮЗ - юго-западный, З - западный, СЗ - северо-западный.
Видимость - горизонтальная дальность видимости в метрах или километрах. При видимости от 1 до 10 км при отсутствии осадков обычно наблюдается дымка, при ухудшении видимости до 1 км и менее - туман. В сухую погоду видимость может ухудшаться дымом, пылью или мглою.
Явления - указаны атмосферные явления, наблюдавшиеся в срок или в последний час перед сроком; фигурными скобками обозначены явления, наблюдавшиеся между сроками (за 1-3 часа до срока); квадратными скобками обозначены град или гололедные отложения с указанием их диаметра в мм.
Облачность - указаны через наклонную черту общая и нижняя облачность в баллах и высота нижней границы облаков в метрах; квадратными скобками обозначены формы облаков: Ci - перистые, Cs - перисто-слоистые, Cc - перисто-кучевые, Ac - высококучевые, As - высокослоистые, Sc - слоисто-кучевые, Ns - слоисто-дождевые, Cu - кучевые, Cb - кучево-дождевые. Подробнее классификацию облаков см. в Атласе облаков (PDF).
T - Температура воздуха - температура, измеренная на высоте 2 м над землей.
Td - Температура точки росы - температура, при понижении до которой содержащийся в воздухе водяной пар достигнет насыщения.
f - Относительная влажность воздуха - влажноcть воздуха, измеренная на высоте 2 м над землей.
Te - Эффективная температура - температура, которую ощущает одетый по сезону человек в тени. Характеристика душности погоды. При расчете учитывается влияние влажности воздуха и скорости ветра на теплоощущения человека.
Tes - Эффективная температура на солнце - температура, которую ощущает человек, с поправкой на солнечный нагрев. Характеристика знойности погоды. Зависит от высоты солнца над горизонтом, облачности и скорости ветра. Ночью, в пасмурную погоду, а также при ветре 12 м/с и более поправка равна нулю.
P - Атмосферное давление - приведенное к уровню моря атмосферное давление.
Po - Атмосферное давление - измеренное на уровне метеостанции атмосферное давление.
Tmin - Минимальная температура - минимум температуры воздуха на высоте 2 м над землей.
Tmax - Максимальная температура - максимум температуры воздуха на высоте 2 м над землей.
R - Количество осадков - Количество выпавших осадков за период времени, мм. При наведении курсора мыши на число - период времени, за который выпало указанное количество осадков.
R24 - Количество осадков - Количество выпавших осадков за 24 часа, мм.
S - Снежный покров - Высота снежного покрова, см. При наведении курсора мыши на число - состояние снежного покрова и степень покрытия местности в баллах.